This is the latest recevied weather packets stored in our database for station/object DL3TR-13. If no packets are shown the sender has not sent any weather packets the latest 10 day(s).
| Time | Temp. | Humidity | Pressure | Rain* | Wind** | Luminosity | Snow |
|---|---|---|---|---|---|---|---|
| 1778012590 | 10° C | 91% | 1008.3 hPa | 1.02 mm | - | 0 W/m² | - |
| 1778011990 | 10° C | 91% | 1008.3 hPa | 1.52 mm | - | 0 W/m² | - |
| 1778011390 | 10° C | 91% | 1008.7 hPa | 1.78 mm | - | 0 W/m² | - |
| 1778010790 | 10° C | 92% | 1008.8 hPa | 3.56 mm | - | 0 W/m² | - |
| 1778010190 | 10° C | 92% | 1008.7 hPa | 4.32 mm | - | 0 W/m² | - |
| 1778009590 | 10.56° C | 92% | 1008.8 hPa | 4.32 mm | - | 0 W/m² | - |
| 1778008990 | 10.56° C | 91% | 1008.6 hPa | 4.32 mm | - | 0 W/m² | - |
| 1778008390 | 10.56° C | 90% | 1008.7 hPa | 3.3 mm | - | 0 W/m² | - |
| 1778007790 | 10.56° C | 89% | 1008.4 hPa | 2.79 mm | - | 0 W/m² | - |
| 1778007190 | 11.11° C | 88% | 1008.2 hPa | 0.76 mm | - | 0 W/m² | - |
| 1778006590 | 12.22° C | 88% | 1008 hPa | 0 mm | - | 0 W/m² | - |
| 1778005990 | 12.22° C | 90% | 1007.2 hPa | 0 mm | - | 0 W/m² | - |
| 1778005390 | 12.22° C | 90% | 1007.1 hPa | 0 mm | - | 0 W/m² | - |
| 1778004790 | 12.22° C | 89% | 1006.9 hPa | 0 mm | - | 5 W/m² | - |
| 1778004190 | 12.22° C | 89% | 1006.9 hPa | 0 mm | - | 5 W/m² | - |
| 1778003590 | 12.22° C | 88% | 1006.6 hPa | 0 mm | - | 9 W/m² | - |
| 1778002990 | 12.78° C | 86% | 1006.5 hPa | 0 mm | - | 16 W/m² | - |
| 1778002390 | 13.33° C | 84% | 1006.5 hPa | 0 mm | - | 16 W/m² | - |
| 1778001790 | 13.89° C | 83% | 1006.4 hPa | 0 mm | - | 28 W/m² | - |
| 1778001190 | 14.44° C | 82% | 1006.2 hPa | 0 mm | - | 47 W/m² | - |
| 1778000590 | 15° C | 81% | 1006 hPa | 0 mm | - | 83 W/m² | - |
| 1777999990 | 15.56° C | 80% | 1005.9 hPa | 0 mm | - | 128 W/m² | - |
| 1777999390 | 15° C | 82% | 1005.8 hPa | 0 mm | - | 116 W/m² | - |
| 1777998790 | 15° C | 81% | 1005.6 hPa | 0 mm | - | 155 W/m² | - |
| 1777998190 | 15° C | 80% | 1005.6 hPa | 0 mm | - | 102 W/m² | - |
* Rain latest hour (hover to see other rain measurements)
** Current wind speed in m/s (hover to see current wind gust speed)